Bainsville, Ontario

2:35 PM EST on December 05, 2016 (GMT -0500)
St.-Anicet

Weather History for CWBZ - October, 2013

Change the Weather History Date:

Sunday, October 20, 2013

  Actual Average Record
Temperature  
Mean Temperature 50 °F -  
Max Temperature 57 °F - - ()
Min Temperature 38 °F - - ()
Degree Days  
Heating Degree Days 16    
Moisture  
Dew Point 39 °F    
Average Humidity 70    
Maximum Humidity 94    
Minimum Humidity 32    
Precipitation  
Precipitation 0.04 in - - ()
Sea Level Pressure  
Sea Level Pressure 29.77 in    
Wind  
Wind Speed 10 mph ()    
Max Wind Speed 18 mph    
Max Gust Speed 26 mph    
T = Trace of Precipitation, MM = Missing Value Source: Averaged Metar Reports

Daily Weather History Graph

Daily Weather History Graph

Search for Another Location

Airport or City:

Trip Planner

Search our weather history database for the weather conditions in past years. The results will help you decide how hot, cold, wet, or windy it might be!

Date:

Astronomy

Oct. 20, 2013 Rise Set
Actual Time 7:19 AM EDT 6:03 PM EDT
Civil Twilight 6:49 AM EDT 6:33 PM EDT
Nautical Twilight 6:15 AM EDT 7:07 PM EDT
Astronomical Twilight 5:41 AM EDT 7:41 PM EDT
Moon 7:04 PM EDT (10/20) 8:59 AM EDT (10/20)
Length of Visible Light 11h 43m
Length of Day
10h 43m
Full, 97% of the Moon is Illuminated
Oct 20
Full
Oct 26
Last Quarter
Nov 3
New
Nov 10
First Quarter
Nov 17
Full

Hourly Weather History & Observations

Time (EDT) Temp. Windchill Dew Point Humidity Pressure Visibility Wind Dir Wind Speed Gust Speed Precip Events Conditions
12:00 AM 50.7 °F - 48.6 °F 92% 29.57 in - South 4.6 mph - N/A   Unknown
1:00 AM 50.4 °F - 48.7 °F 94% 29.57 in - SSW 4.6 mph - 0.08 in   Unknown
2:00 AM 49 °F - 47 °F 90% 29.58 in - SW 12.7 mph - -  
2:00 AM 49.1 °F - 46.9 °F 92% 29.58 in - SW 12.7 mph 23.0 mph N/A   Unknown
3:00 AM 47.7 °F - 44.8 °F 90% 29.60 in - SW 13.8 mph 25.3 mph 0.04 in   Unknown
4:00 AM 46.8 °F - 43.2 °F 87% 29.62 in - SW 12.7 mph 19.6 mph N/A   Unknown
5:00 AM 47.3 °F - 43.3 °F 86% 29.64 in - WSW 12.7 mph 19.6 mph N/A   Unknown
6:00 AM 46.8 °F - 42.4 °F 85% 29.66 in - WSW 13.8 mph 20.7 mph N/A   Unknown
7:00 AM 45.5 °F 38.9 °F 41.2 °F 85% 29.69 in - WSW 15.0 mph 24.2 mph N/A   Unknown
8:00 AM 45 °F - 40 °F 76% 29.72 in - WSW 15.0 mph - -  
8:00 AM 45.0 °F 38.2 °F 39.9 °F 82% 29.72 in - WSW 15.0 mph 25.3 mph N/A   Unknown
9:00 AM 47.5 °F - 40.5 °F 77% 29.74 in - WSW 13.8 mph 20.7 mph N/A   Unknown
10:00 AM 50.0 °F - 40.3 °F 69% 29.75 in - WSW 16.1 mph 25.3 mph N/A   Unknown
11:00 AM 51.8 °F - 37.4 °F 58% 29.77 in - WSW 16.1 mph 26.5 mph N/A   Unknown
12:00 PM 52.9 °F - 37.2 °F 55% 29.79 in - WSW 18.4 mph 26.5 mph N/A   Unknown
1:00 PM 55.0 °F - 37.0 °F 51% 29.81 in - West 15.0 mph 25.3 mph N/A   Unknown
2:00 PM 56 °F - 35 °F 32% 29.81 in - West 16.1 mph - -  
2:00 PM 55.8 °F - 34.7 °F 45% 29.81 in - West 16.1 mph 26.5 mph N/A   Unknown
3:00 PM 55.9 °F - 33.3 °F 42% 29.82 in - West 16.1 mph 26.5 mph N/A   Unknown
4:00 PM 56.5 °F - 33.1 °F 41% 29.84 in - West 12.7 mph 19.6 mph N/A   Unknown
5:00 PM 55.0 °F - 33.6 °F 44% 29.86 in - West 8.1 mph - N/A   Unknown
6:00 PM 52.9 °F - 34.5 °F 50% 29.87 in - West 9.2 mph - N/A   Unknown
7:00 PM 50.2 °F - 36.1 °F 59% 29.90 in - West 5.8 mph - N/A   Unknown
8:00 PM 45 °F - 37 °F 64% 29.93 in - WSW 4.6 mph - -  
8:00 PM 45.0 °F 42.6 °F 36.7 °F 73% 29.93 in - WSW 4.6 mph - N/A   Unknown
9:00 PM 42.1 °F 40.2 °F 36.3 °F 80% 29.95 in - SSW 3.5 mph - N/A   Unknown
10:00 PM 43.2 °F 40.5 °F 37.2 °F 80% 29.96 in - WSW 4.6 mph - N/A   Unknown
11:00 PM 38.7 °F - 35.1 °F 87% 29.98 in - SW 2.3 mph - N/A   Unknown